Wind_Speed
11 10 10 9 9 9 9 9 9 10 10 11 12 12 12 12 11 10 10 9 9 9 9 9 8 7 7 6 6 6 6 6 6 6 6 6 6 6 6 6 7 7 7
13 12 11 10 9 9 8 8 9 9 10 11 12 12 12 12 12 12 11 10 9 9 9 9 9 8 7 6 6 6 6 6 5 5 5 5 4 4 4 4 5 6 6
13 12 11 10 9 9 8 8 8 8 9 10 11 12 12 13 12 12 12 11 11 10 9 9 8 8 7 6 6 6 6 5 5 4 4 3 3 3 3 3 4 4 5
12 12 11 10 9 8 7 7 8 8 9 10 11 11 12 12 13 13 12 12 12 12 11 10 9 8 7 7 6 6 6 5 5 4 3 2 2 1 1 2 2 2 3
11 11 11 10 9 9 8 8 8 8 9 10 10 11 11 12 13 13 13 13 14 13 12 11 10 9 8 8 7 7 7 6 5 5 4 3 2 1 1 0 1 1 2
12 11 10 10 10 9 9 9 9 10 10 11 12 12 12 12 13 14 14 14 15 15 14 13 13 12 11 10 10 9 9 8 7 6 4 5 4 3 2 1 1 1 2
12 11 10 10 10 10 10 11 12 13 14 14 14 14 14 15 15 15 15 16 16 16 16 15 15 14 14 13 13 12 12 11 10 8 7 7 6 5 4 3 3 3 3
12 11 11 11 11 11 12 13 15 16 17 18 18 18 18 18 18 18 18 18 18 18 18 18 17 17 16 16 16 16 15 15 14 12 10 10 9 8 7 6 5 5 5
14 14 13 13 14 14 15 16 18 19 20 21 22 22 22 23 23 23 23 22 22 21 20 20 20 19 19 19 19 19 19 18 18 16 14 13 12 11 10 9 9 8 8
16 17 17 17 17 18 18 19 20 21 22 23 24 25 26 26 27 27 27 27 26 25 24 23 23 22 22 22 22 22 22 22 21 20 18 16 16 15 14 13 12 11 11
20 19 19 19 20 20 21 22 23 23 24 25 26 27 28 29 29 30 30 30 29 29 28 27 26 25 25 25 25 25 25 25 25 23 21 20 20 18 17 16 15 15 14
22 22 22 22 23 23 23 24 25 25 26 28 28 29 30 30 31 31 31 31 32 32 31 30 30 28 28 27 28 27 27 28 27 26 25 23 23 21 20 19 18 18 17
23 24 25 24 25 26 25 26 27 28 28 29 29 30 31 33 33 34 34 33 33 34 34 33 33 32 31 31 31 30 30 30 30 29 26 25 25 24 22 21 20 20 19
25 27 28 28 27 29 29 29 29 31 32 31 32 32 33 34 35 36 37 36 35 35 36 37 36 35 35 34 33 32 32 32 31 30 28 26 26 25 23 22 21 21 20
29 30 31 31 31 32 33 33 33 34 34 35 36 36 36 37 37 37 36 38 38 38 37 37 37 37 36 35 35 34 33 33 31 30 28 27 26 25 24 23 22 22 21
32 33 34 34 34 35 36 36 36 37 38 39 40 40 40 39 38 38 38 38 38 38 37 36 38 38 36 36 36 35 35 34 32 30 29 29 28 26 25 23 22 21 20
35 34 35 36 36 37 38 39 40 41 42 42 42 43 42 41 40 39 38 37 37 37 37 37 37 38 37 37 36 36 35 34 32 31 29 29 28 28 26 24 22 22 21
34 35 36 38 38 39 40 41 42 43 44 44 44 44 43 42 41 39 38 37 37 36 36 35 35 36 37 37 37 35 34 33 33 31 29 29 28 27 25 24 23 22 21
33 34 36 38 39 40 42 44 45 46 46 46 45 45 44 42 41 39 38 38 37 36 36 35 34 35 35 35 35 35 35 34 32 30 28 28 28 27 26 24 23 22 21
32 34 36 38 40 41 43 45 46 46 46 47 46 45 43 42 41 39 39 38 37 37 37 36 36 35 35 35 35 35 35 35 33 30 28 27 27 27 26 24 23 22 21
32 35 37 39 41 43 45 45 46 46 47 47 46 45 42 41 41 41 40 39 39 39 38 37 37 36 35 35 35 34 33 34 33 30 28 27 27 27 26 25 23 23 22
33 35 37 39 40 42 43 44 45 45 46 46 46 45 44 42 42 43 43 42 42 41 40 38 38 35 33 34 33 33 33 32 33 31 29 28 28 27 27 26 25 24 22
31 33 35 36 38 40 42 43 45 46 46 46 46 46 45 44 44 44 45 45 44 43 41 39 37 35 35 34 33 33 32 32 31 30 31 29 29 28 28 27 26 25 24
31 33 35 36 38 40 42 44 45 46 46 46 47 47 47 47 46 45 45 46 45 45 43 41 40 38 37 36 34 33 34 33 32 31 31 31 30 30 30 29 27 26 25
33 35 37 37 38 40 42 44 44 45 46 47 47 47 46 46 45 45 45 45 45 44 44 43 41 40 39 38 37 34 34 35 34 32 31 32 32 32 31 31 29 28 27
34 36 38 39 39 40 41 43 44 45 45 46 46 46 45 44 44 43 43 43 42 43 43 43 42 41 40 39 39 38 37 35 34 34 34 33 33 33 33 33 31 30 29
Wind_Direction
291 289 291 295 301 307 314 322 327 332 335 336 335 335 337 339 341 344 351 358 6 11 13 11 7 4 3 1 1 3 6 13 21 27 37 47 57 70 82 91 94 95 93
291 291 291 294 297 302 308 314 320 325 328 329 329 329 329 332 334 336 341 347 352 358 2 5 4 1 357 353 351 351 352 357 8 16 24 36 51 67 82 95 103 103 101
293 293 291 292 294 298 304 310 316 320 321 322 323 323 323 324 327 328 331 336 340 343 347 350 354 354 351 347 342 337 336 338 344 356 7 21 37 57 81 97 109 114 111
297 295 292 291 293 295 300 307 312 315 316 317 318 318 318 319 320 321 323 326 328 330 332 334 335 338 338 334 331 328 326 324 322 327 336 349 8 25 68 101 112 125 129
302 297 295 292 292 294 297 303 307 309 310 312 312 313 313 314 315 316 317 318 319 320 320 320 320 319 319 316 312 311 311 312 312 309 308 311 316 322 334 141 150 151 163
305 300 295 290 291 294 296 301 304 305 306 307 307 306 306 307 308 309 309 311 311 311 310 308 307 305 304 302 299 296 295 296 297 298 299 293 289 289 291 278 244 224 224
301 298 293 292 295 298 302 306 308 308 307 307 306 305 303 303 302 302 301 302 303 303 302 299 298 297 293 292 290 288 286 286 286 286 284 281 280 281 281 277 268 255 247
298 295 293 295 297 300 304 307 307 307 307 307 305 304 302 301 299 298 298 296 296 295 294 292 290 289 287 284 284 283 281 280 280 280 277 275 275 275 274 272 270 265 257
297 295 295 296 299 300 301 303 303 303 304 304 303 302 302 301 299 297 295 294 292 290 287 285 284 282 281 280 279 278 276 276 275 274 273 273 272 271 270 268 267 265 261
299 297 296 297 299 299 299 299 300 300 301 302 301 300 300 299 298 296 294 291 289 287 285 282 279 277 276 276 275 274 273 272 271 270 270 269 268 268 267 266 265 264 263
299 299 296 296 298 299 299 300 300 299 300 301 301 300 298 296 296 294 293 290 287 285 283 281 278 275 273 271 271 271 271 270 269 269 266 264 264 264 263 265 263 262 261
299 298 294 296 298 298 298 300 300 300 300 300 299 299 297 295 293 292 291 289 287 285 283 280 278 275 272 269 267 267 267 267 267 266 264 261 261 261 261 262 261 261 260
297 298 297 298 299 300 299 299 299 298 299 299 299 299 297 294 292 291 289 286 285 283 281 280 279 275 271 268 265 263 263 263 265 263 262 260 259 259 258 258 258 259 259
295 295 295 296 298 299 299 298 298 299 298 297 298 298 297 296 295 293 291 288 286 284 281 278 277 276 273 269 266 262 260 261 260 260 258 255 254 253 254 255 255 256 257
289 290 292 295 296 296 297 297 297 297 298 299 299 299 296 296 295 293 293 291 288 287 282 277 277 274 272 270 267 264 261 259 256 256 256 252 250 252 253 252 253 254 254
285 286 288 290 291 292 293 294 295 296 297 297 297 296 293 293 294 293 293 291 287 286 282 279 277 274 271 272 269 265 262 258 253 253 253 250 249 248 247 248 248 249 249
282 283 284 286 287 289 290 292 293 294 295 295 294 293 292 292 292 293 292 292 289 287 285 283 279 276 272 271 269 267 262 257 253 251 253 249 245 245 245 244 245 246 247
278 280 281 283 285 287 288 289 290 292 292 293 291 290 290 290 291 291 289 289 288 286 287 284 280 276 274 272 268 265 263 258 253 251 251 248 245 243 243 243 243 245 247
277 279 281 283 285 286 287 288 289 290 291 292 291 290 289 289 289 288 287 286 286 285 286 284 280 277 276 273 268 264 261 259 253 251 248 247 245 241 240 241 241 243 244
277 279 281 282 284 285 287 287 288 289 290 290 290 290 288 286 286 286 285 285 284 284 286 282 276 274 275 275 269 264 260 257 253 250 247 245 240 238 237 236 236 238 239
279 280 282 283 284 285 286 287 287 288 288 288 288 287 286 285 285 284 283 283 281 282 284 282 278 275 273 272 269 262 258 254 250 246 244 241 238 236 234 233 232 233 235
282 283 284 285 286 286 286 287 287 287 287 287 287 287 286 285 284 282 281 280 279 279 279 278 278 273 271 268 266 262 258 253 247 245 240 238 237 235 233 232 230 229 230
287 287 288 288 288 289 288 288 288 288 288 288 288 288 287 285 283 282 281 280 279 278 277 276 275 269 267 267 264 258 254 246 246 244 237 236 236 234 231 230 228 227 226
294 293 293 293 293 293 292 292 292 292 291 290 289 288 287 286 284 282 280 279 278 277 275 274 272 270 266 265 261 255 251 246 246 241 237 234 235 234 230 228 225 224 223
302 301 300 299 298 296 296 295 294 293 293 292 290 289 288 287 285 284 282 279 278 276 274 272 270 268 265 262 256 252 251 247 243 238 236 235 234 232 229 226 223 222 221
308 307 306 305 303 301 299 298 297 296 295 294 293 292 291 289 287 285 283 281 277 275 272 270 268 265 263 260 255 251 249 247 242 236 232 234 233 230 227 225 223 221 220
Height
5915 5914 5914 5914 5914 5913 5913 5912 5912 5911 5911 5910 5909 5909 5908 5908 5907 5907 5906 5905 5905 5904 5903 5903 5902 5901 5900 5899 5899 5898 5898 5898 5897 5897 5896 5896 5896 5896 5896 5897 5897 5897 5898
5914 5913 5913 5913 5913 5913 5912 5911 5911 5911 5910 5910 5909 5909 5908 5907 5907 5907 5906 5906 5905 5904 5904 5903 5903 5902 5901 5900 5899 5899 5899 5898 5898 5898 5897 5897 5897 5897 5897 5898 5898 5899 5899
5913 5912 5912 5912 5912 5912 5911 5911 5910 5910 5910 5909 5909 5908 5908 5907 5907 5906 5906 5905 5905 5904 5904 5903 5903 5902 5902 5901 5900 5899 5899 5899 5899 5898 5898 5898 5898 5898 5898 5899 5899 5900 5900
5912 5912 5911 5911 5911 5911 5910 5910 5910 5909 5909 5908 5908 5907 5907 5906 5906 5905 5905 5905 5904 5904 5904 5903 5903 5902 5902 5901 5900 5900 5899 5899 5899 5899 5899 5898 5898 5899 5899 5899 5900 5900 5901
5911 5911 5911 5910 5910 5909 5909 5909 5908 5908 5908 5907 5907 5906 5906 5905 5905 5904 5904 5903 5903 5903 5902 5902 5902 5902 5902 5901 5900 5900 5899 5899 5899 5899 5899 5898 5898 5899 5899 5899 5900 5900 5901
5910 5910 5909 5909 5909 5908 5908 5907 5907 5907 5906 5906 5906 5905 5905 5904 5904 5903 5902 5902 5902 5901 5901 5901 5901 5901 5900 5900 5900 5899 5899 5899 5898 5898 5899 5898 5898 5898 5899 5899 5900 5900 5901
5909 5909 5908 5908 5907 5907 5906 5906 5906 5905 5905 5905 5904 5904 5903 5902 5902 5901 5901 5900 5900 5899 5899 5899 5899 5899 5899 5899 5898 5898 5898 5898 5898 5898 5898 5898 5897 5898 5898 5899 5899 5900 5901
5907 5907 5906 5906 5905 5905 5905 5904 5904 5903 5903 5902 5902 5901 5900 5900 5899 5899 5898 5897 5897 5896 5896 5896 5896 5896 5896 5896 5896 5896 5896 5896 5896 5896 5897 5897 5897 5897 5897 5898 5898 5899 5900
5905 5904 5904 5904 5903 5903 5902 5902 5901 5901 5900 5899 5899 5898 5897 5896 5896 5895 5894 5894 5893 5893 5893 5893 5893 5893 5893 5893 5893 5893 5893 5893 5893 5894 5894 5895 5895 5895 5896 5896 5897 5898 5899
5902 5902 5901 5901 5901 5900 5900 5899 5898 5897 5896 5895 5895 5894 5893 5892 5891 5890 5889 5889 5888 5888 5888 5888 5888 5889 5889 5889 5889 5889 5889 5889 5889 5890 5891 5892 5892 5893 5894 5894 5895 5896 5897
5899 5899 5899 5898 5898 5897 5896 5895 5894 5893 5892 5891 5890 5889 5888 5887 5886 5885 5884 5883 5882 5882 5882 5882 5883 5883 5884 5885 5885 5885 5885 5885 5885 5886 5888 5889 5889 5890 5891 5892 5892 5894 5895
5895 5895 5895 5895 5894 5893 5892 5891 5890 5889 5888 5886 5885 5884 5882 5881 5880 5879 5878 5877 5876 5876 5876 5876 5876 5877 5878 5879 5879 5880 5880 5880 5881 5882 5883 5884 5885 5886 5887 5888 5889 5890 5892
5892 5892 5891 5891 5890 5889 5888 5887 5886 5885 5883 5882 5880 5879 5877 5876 5874 5873 5871 5871 5870 5868 5868 5868 5869 5870 5871 5872 5873 5874 5874 5875 5875 5876 5878 5880 5881 5882 5883 5884 5885 5887 5888
5889 5888 5887 5886 5886 5884 5883 5882 5881 5879 5877 5876 5875 5873 5871 5869 5868 5866 5864 5863 5863 5861 5859 5859 5861 5862 5863 5864 5865 5866 5867 5868 5869 5870 5871 5873 5874 5876 5878 5879 5881 5883 5884
5884 5883 5882 5881 5881 5879 5877 5876 5875 5873 5871 5869 5868 5866 5864 5862 5861 5860 5857 5855 5854 5853 5851 5852 5852 5853 5854 5855 5856 5858 5860 5861 5863 5863 5864 5865 5866 5869 5872 5874 5876 5878 5880
5878 5878 5877 5876 5875 5873 5872 5869 5868 5867 5865 5863 5861 5859 5857 5855 5854 5852 5850 5848 5846 5844 5843 5843 5844 5843 5844 5846 5848 5850 5851 5853 5855 5856 5857 5860 5860 5864 5867 5869 5871 5873 5875
5873 5872 5871 5870 5869 5868 5866 5864 5862 5860 5858 5856 5853 5851 5849 5847 5846 5844 5843 5841 5839 5837 5836 5835 5835 5835 5837 5838 5839 5841 5843 5845 5847 5848 5849 5852 5855 5858 5861 5864 5866 5868 5870
5867 5866 5865 5864 5862 5861 5859 5857 5854 5852 5850 5848 5845 5843 5840 5839 5838 5836 5835 5834 5832 5831 5829 5828 5828 5828 5828 5829 5830 5832 5835 5837 5840 5842 5844 5847 5850 5853 5855 5858 5861 5863 5866
5862 5860 5859 5857 5856 5854 5852 5849 5846 5844 5841 5839 5836 5834 5832 5830 5829 5828 5827 5825 5824 5823 5822 5820 5820 5819 5820 5820 5822 5824 5826 5829 5832 5835 5838 5840 5843 5847 5850 5852 5855 5858 5861
5856 5854 5853 5851 5848 5846 5844 5841 5838 5835 5833 5830 5827 5825 5823 5821 5820 5819 5818 5817 5816 5815 5814 5812 5812 5811 5812 5813 5813 5815 5818 5820 5823 5827 5831 5834 5837 5840 5844 5846 5849 5852 5856
5850 5848 5846 5844 5841 5838 5835 5832 5829 5826 5823 5820 5818 5816 5815 5813 5811 5810 5809 5808 5807 5807 5806 5805 5804 5803 5804 5805 5806 5808 5810 5813 5815 5819 5823 5827 5831 5834 5837 5840 5843 5847 5850
5843 5841 5838 5836 5833 5829 5826 5823 5820 5817 5813 5810 5808 5806 5805 5804 5802 5800 5799 5799 5798 5797 5797 5797 5796 5795 5796 5797 5799 5800 5802 5805 5808 5812 5816 5820 5824 5827 5831 5835 5839 5842 5845
5836 5833 5831 5828 5825 5821 5817 5813 5810 5806 5803 5800 5797 5795 5793 5793 5791 5790 5788 5788 5787 5787 5787 5787 5787 5787 5788 5790 5791 5793 5795 5798 5801 5805 5808 5813 5817 5821 5825 5829 5833 5836 5840
5828 5825 5822 5819 5816 5812 5807 5803 5799 5795 5792 5789 5786 5784 5782 5780 5779 5778 5777 5776 5776 5776 5776 5777 5778 5778 5780 5782 5783 5784 5788 5791 5794 5797 5800 5805 5809 5814 5818 5822 5827 5831 5834
5820 5817 5813 5810 5806 5802 5797 5792 5788 5784 5780 5777 5774 5772 5770 5768 5766 5765 5764 5764 5764 5764 5764 5765 5767 5768 5770 5772 5774 5776 5779 5782 5785 5790 5793 5797 5802 5807 5811 5816 5820 5825 5829
5813 5808 5803 5799 5795 5791 5786 5782 5777 5773 5769 5765 5762 5759 5757 5755 5753 5752 5751 5751 5751 5752 5752 5753 5755 5757 5759 5762 5765 5767 5770 5773 5777 5781 5785 5790 5794 5799 5804 5809 5813 5818 5823